Flag for Canada Weather past 2 weeks in Sidney, British Columbia, Canada

Now
59 °F

Partly sunny.


Feels Like: 57 °F
Forecast: 48 / 58 °F
Wind: 10 mph from Southwest

Location: Victoria Int. Airportb. C.

Current Time: Apr 28, 2015 at 7:52:37 AM

Latest Report: Apr 28, 2015 at 7:00 AM


Visibility: 30 mi

Pressure: 29.96 "Hg

Humidity: 68%

Dew point: 48 °F

Location of SidneyLocation

Historic Weather in Sidney — Graph

°F

Sidney temperature yesterday

Maximum temperature yesterday: 61 °F (at 4:00 PM)
Minimum temperature yesterday: 48 °F (at 3:00 AM)
Average temperature yesterday: 54 °F

Past Weeks' High & Low Weather Summary

 TemperatureHumidityPressure
High66 °F (Apr 20, 4:00 PM)100% (Apr 13, 8:00 AM)30.53 "Hg (Apr 13, 8:00 AM)
Low36 °F (Apr 22, 3:00 AM)41% (Apr 22, 2:00 PM)29.71 "Hg (Apr 24, 5:00 AM)
Average49 °F75%30.10 "Hg
* Reported Apr 13 7:00 AM — Apr 28 7:00 AM, Sidney, Weather by CustomWeather, © 2015

Note: Actual official high and low records may vary slightly from our data, if they occured in-between our weather recording intervals... More about our weather records

Advertising

Sidney weather history for previous 24 hours

 ConditionsComfort  
Time TempWeatherWind HumidityBarometerVisibility
7:00 AM
Tue, Apr 28
59 °FPartly sunny.10 mph68%29.96 "Hg30 mi
6:00 AM57 °FPartly cloudy.5 mph72%29.93 "Hg30 mi
5:00 AM61 °FPartly cloudy.15 mph59%29.92 "Hg30 mi
4:00 AM55 °FPassing clouds.2 mph82%29.91 "Hg30 mi
3:00 AM50 °FPassing clouds.3 mph94%29.91 "Hg30 mi
2:00 AM50 °FPassing clouds.6 mph100%29.90 "Hg30 mi
1:00 AM52 °FPassing clouds.7 mph100%29.89 "Hg30 mi
12:00 AM52 °FPassing clouds.6 mph94%29.89 "Hg30 mi
11:00 PM
Mon, Apr 27
54 °FPassing clouds.6 mph94%29.90 "Hg30 mi
10:00 PM55 °FPassing clouds.15 mph94%29.93 "Hg30 mi
9:00 PM55 °FScattered clouds.7 mph88%29.95 "Hg20 mi
8:00 PM57 °FPartly sunny.8 mph88%29.97 "Hg20 mi
7:00 PM59 °FPartly sunny.9 mph82%30.01 "Hg20 mi
6:00 PM61 °FPartly sunny.9 mph77%30.04 "Hg20 mi
5:00 PM59 °FPartly sunny.9 mph82%30.07 "Hg20 mi
4:00 PM61 °FPartly sunny.9 mph77%30.12 "Hg15 mi
3:00 PM57 °FMostly cloudy.12 mph82%30.16 "Hg12 mi
2:00 PM55 °FLow clouds.9 mph88%30.18 "Hg12 mi
1:00 PM55 °FMore clouds than sun.6 mph94%30.21 "Hg8 mi
12:49 PM55 °FFog.6 mph94%30.22 "Hg6 mi
12:00 PM54 °FFog.3 mph94%30.23 "Hg5 mi
11:00 AM54 °FFog.5 mph94%30.23 "Hg3 mi
10:00 AM52 °FLight rain. Fog.5 mph100%30.24 "Hg2 mi
9:00 AM50 °FLight rain. Fog.2 mph100%30.25 "Hg1 mi
8:00 AM50 °FLight rain. Fog.5 mph100%30.24 "Hg1 mi
7:00 AM50 °FDrizzle. Fog.No wind94%30.23 "Hg1 mi
Weather by CustomWeather, © 2015

See weather overviewHow to use our weather pages